This is the latest recevied weather packets stored in our database for station/object W4NDF-13. If no packets are shown the sender has not sent any weather packets the latest 10 day(s).
| Time | Temp. | Humidity | Pressure | Rain* | Wind** | Luminosity | Snow |
|---|---|---|---|---|---|---|---|
| 1777588906 | 22.78° C | 99% | 1011.4 hPa | 22.86 mm | - | 10 W/m² | - |
| 1777588602 | 22.78° C | 99% | 1011.1 hPa | 14.99 mm | - | 9 W/m² | - |
| 1777588297 | 22.78° C | 98% | 1010.8 hPa | 1.27 mm | - | 10 W/m² | - |
| 1777587993 | 22.78° C | 98% | 1011.1 hPa | 1.78 mm | - | 12 W/m² | - |
| 1777587689 | 22.78° C | 98% | 1011.4 hPa | 1.78 mm | - | 8 W/m² | - |
| 1777587388 | 22.78° C | 98% | 1010.9 hPa | 1.27 mm | - | 5 W/m² | - |
| 1777587084 | 22.78° C | 97% | 1010.8 hPa | 3.05 mm | - | 12 W/m² | - |
| 1777586781 | 22.78° C | 97% | 1010.9 hPa | 4.83 mm | - | 10 W/m² | - |
| 1777586476 | 22.78° C | 97% | 1011.2 hPa | 6.6 mm | - | 12 W/m² | - |
| 1777586171 | 22.78° C | 96% | 1011.3 hPa | 7.11 mm | - | 9 W/m² | - |
| 1777585869 | 22.78° C | 95% | 1011.1 hPa | 7.11 mm | - | 9 W/m² | - |
| 1777585564 | 22.78° C | 93% | 1011.3 hPa | 3.05 mm | - | 8 W/m² | - |
| 1777585261 | 22.78° C | 93% | 1011.2 hPa | 1.78 mm | - | 11 W/m² | - |
| 1777584955 | 22.78° C | 93% | 1011.3 hPa | 1.27 mm | - | 15 W/m² | - |
| 1777584652 | 23.33° C | 92% | 1011.2 hPa | 1.27 mm | - | 10 W/m² | - |
| 1777584349 | 23.89° C | 91% | 1011.1 hPa | 1.78 mm | - | 6 W/m² | - |
| 1777584045 | 23.89° C | 90% | 1011 hPa | 1.78 mm | - | 7 W/m² | - |
| 1777583740 | 23.89° C | 90% | 1011.2 hPa | 0 mm | - | 12 W/m² | - |
| 1777583439 | 23.89° C | 90% | 1011.1 hPa | 0 mm | - | 31 W/m² | - |
| 1777583139 | 23.89° C | 90% | 1011.3 hPa | 0 mm | - | 52 W/m² | - |
| 1777582835 | 24.44° C | 88% | 1011.2 hPa | 0 mm | - | 103 W/m² | - |
| 1777582532 | 24.44° C | 88% | 1011.2 hPa | 0 mm | - | 122 W/m² | - |
| 1777582227 | 24.44° C | 89% | 1011.1 hPa | 0 mm | - | 144 W/m² | - |
| 1777581925 | 25° C | 89% | 1011.2 hPa | 0 mm | - | 93 W/m² | - |
| 1777581620 | 25° C | 88% | 1011.2 hPa | 0 mm | - | 95 W/m² | - |
* Rain latest hour (hover to see other rain measurements)
** Current wind speed in m/s (hover to see current wind gust speed)